7 * 24
多渠道服务支持
STARLINK-32137 是 SpaceX Starlink 卫星互联网项目中的一颗低轨卫星。该卫星属于 Starlink 群体的一部分,旨在为全球用户提供高速互联网接入服务。它运行在约 550 公里的近地轨道上,采用可再生能源供电,并具备自动避障功能以确保轨道安全。该卫星的发射有助于扩展 Starlink 的网络覆盖范围,提升连接性能,特别是在偏远和网络基础设施薄弱的地区。
美国
(US)
| 数据来源 | 国际轨道数据 |
| 星历时间: | 2025-12-20T06:10:04+0800 9小时前 查看轨道信息 |
| 半长轴: | 6853.384km |
| 偏心率: | 0.0001331 |
| 轨道倾角: | 53.162° |
| 近地点辐角 | 91.599° |
| 升交点赤经 | 330.427° |
| 平近点角 | 268.517° |
| 近地点: | 474.334km |
| 远地点: | 476.16km |
| 周期: | 94.106分钟 |
| 每日圈数: | 15.301895 |